CZ-4 DEB, 35325

Orbit data source: Space-Track

CZ-4 DEB, 35325 is space debris in SSO originally from a launch on Thu, 14 Oct 1999 UTC launched from the Taiyaun Space Center, China (TSC). Debris objects in space refer to the collection of defunct objects orbiting the Earth. Examples of debris include non-operational satellites, rocket bodies, and fragments generated from explosions, collisions, or faulty payload assembly.

Loading next visibility...
CZ-4 DEB details
Identifier
35325, 1999-057SD
Orbit
SSO
Last TLE update1 day ago
Origin
Flag of CNCNSA (CN / PRC)
ManufacturerUnknown
MissionSpacecraft
Bus & MotorUnknown
MassUnknown
Launch date (UTC)
1999-10-14 (25 years ago)
Launch vehicleUnknown
Launch site
Taiyaun Space Center, China (TSC)
Object type
Payload
Rocket body
Debris
Shape & HBRUnknown
Radar Cross SectionSmall (<0.1 m²)

Expand to show TLE details & history

TLE from 1 day ago
0 CZ-4 DEB
1 35325U 99057SD  24355.61356748  .00071195  00000-0  31689-2 0  9999
2 35325  98.4203 123.3473 0011330 258.0351 101.9612 15.21124294113423
Epoch: 2024-12-20T14:43Z
Definitive object data (Epoch: 2024-12-20T14:43:32.23Z)
Latitude0.00001°
Longitude172.78645°
Altitude507.133 km
Speed7.61 km/s
True Right ascension08h 13m 23s
True Declination0° 00' 00"
Sunlit
Object was in full shadow at TLE epoch
Visualization TLE readout
Latitude-27.00731°
Longitude178.18636°
Altitude510.6 km
Speed7.608 km/s
Apparent Right ascension05h 32m 58s
Apparent Declination-47° 52' 03"
Sunlit
Object is in full shadow
Visualization observer readout
Local Sidereal Time13:19:18
Azimuth237.912° WSW
Elevation-44.92°
Doppler factor1
Orbital elements
Apogee altitude507.251 km
Perigee altitude491.666 km
Semi-major axis6,877.596 km
Eccentricity0.001133
Inclination98.4203°
RAAN123.3473°
Arg. of periapsis258.0351°
True anomaly102.08818°
Mean anomaly101.9612°
Eccentric anomaly102.02469°
Mean motion3.80529 °/min
BSTAR0.0031689
Orbital period94.61 mins
Loading maneuver chart data...
Loading historical data...
Loading historical data...
Loading historical data...
Loading historical data...
Loading historical data...
Loading historical data...
Loading historical data...

CZ-4 DEB Visibility forecast

Observer location: undefined°, undefined

Span
Click to sort rows by Start time (UTC) header in descending order
Start Az.
Max El. time (UTC)
Max El. Az.
Max El.
End time (UTC)
End Az.
6 mins2024-12-21 21:17:12.340Z30.737° NE2024-12-21 21:20:12.340Z99.143° ESE33.572°2024-12-21 21:23:12.340Z169.036° S
4 mins2024-12-22 07:56:12.340Z98.321° ESE2024-12-22 07:57:12.340Z77.582° E19.164°2024-12-22 08:00:12.340Z20.846° NNE
4 mins2024-12-22 09:29:12.340Z220.59° SW2024-12-22 09:31:12.340Z264.588° W22.013°2024-12-22 09:33:12.340Z307.149° NW
|